GLO1122 SBSP-SBFI

Flight info

Callsign GLO1122
Flight time 1h 16m
Altitude 36000
Route ASETA UZ152 UPORU
Aircraft B738/M-SDE2E3FGHIRWXY/LB1

Departure

Time 2026-04-21 00:12
Airport Congonhas–Deputado Freitas Nobre Airport (SBSP)

Arrival

Time 2026-04-21 01:28
Airport Cataratas International Airport (SBFI)
Time Latitude Longitude Altitude Speed Heading
2026-04-21 00:03 -23.62657 -46.65863 2600 ft 0 kts 237°
2026-04-21 00:04 -23.62655 -46.65861 2600 ft 2 kts 237°
2026-04-21 00:05 -23.62646 -46.65836 2600 ft 4 kts 273°
2026-04-21 00:05 -23.62654 -46.65812 2600 ft 4 kts 320°
2026-04-21 00:05 -23.62664 -46.65804 2600 ft 1 kts 328°
2026-04-21 00:05 -23.62665 -46.65804 2600 ft 0 kts 328°
2026-04-21 00:07 -23.62663 -46.65804 2600 ft 2 kts 343°
2026-04-21 00:07 -23.62624 -46.65809 2600 ft 9 kts 353°
2026-04-21 00:07 -23.62562 -46.65827 2601 ft 10 kts 332°
2026-04-21 00:08 -23.62499 -46.65871 2600 ft 12 kts 326°
2026-04-21 00:08 -23.62426 -46.65920 2600 ft 12 kts 328°
2026-04-21 00:08 -23.62355 -46.65969 2599 ft 12 kts 328°
2026-04-21 00:08 -23.62285 -46.66017 2599 ft 12 kts 328°
2026-04-21 00:09 -23.62214 -46.66058 2591 ft 11 kts 331°
2026-04-21 00:09 -23.62149 -46.66104 2590 ft 11 kts 327°
2026-04-21 00:09 -23.62125 -46.66121 2597 ft 0 kts 327°
2026-04-21 00:10 -23.62115 -46.66128 2588 ft 4 kts 327°
2026-04-21 00:10 -23.62062 -46.66135 2584 ft 10 kts 18°
2026-04-21 00:10 -23.62043 -46.66085 2595 ft 7 kts 120°
2026-04-21 00:10 -23.62059 -46.66070 2595 ft 0 kts 146°
2026-04-21 00:11 -23.62215 -46.65960 2595 ft 66 kts 147°
2026-04-21 00:11 -23.62820 -46.65541 2610 ft 138 kts 148°
2026-04-21 00:11 -23.63740 -46.64911 3057 ft 162 kts 147°
2026-04-21 00:12 -23.64716 -46.64259 3989 ft 164 kts 158°
2026-04-21 00:12 -23.65875 -46.64297 4617 ft 187 kts 205°
2026-04-21 00:12 -23.66912 -46.65248 5171 ft 200 kts 220°
2026-04-21 00:12 -23.67936 -46.66258 5807 ft 203 kts 219°
2026-04-21 00:13 -23.68949 -46.67354 6358 ft 210 kts 234°
2026-04-21 00:13 -23.69508 -46.68909 6653 ft 235 kts 251°
2026-04-21 00:13 -23.69967 -46.70709 6879 ft 259 kts 251°
2026-04-21 00:13 -23.70474 -46.72694 7201 ft 279 kts 252°
2026-04-21 00:14 -23.71008 -46.74757 7893 ft 285 kts 251°
2026-04-21 00:14 -23.71552 -46.76851 8699 ft 288 kts 251°
2026-04-21 00:14 -23.72103 -46.78963 9517 ft 291 kts 251°
2026-04-21 00:14 -23.72661 -46.81098 10018 ft 291 kts 251°
2026-04-21 00:15 -23.73223 -46.83248 10535 ft 303 kts 251°
2026-04-21 00:15 -23.73829 -46.85553 10702 ft 328 kts 251°
2026-04-21 00:15 -23.74477 -46.88029 10881 ft 349 kts 252°
2026-04-21 00:15 -23.74729 -46.90704 11348 ft 363 kts 274°
2026-04-21 00:16 -23.74045 -46.93371 12044 ft 369 kts 291°
2026-04-21 00:16 -23.73017 -46.95948 12714 ft 373 kts 292°
2026-04-21 00:16 -23.71959 -46.98556 13322 ft 378 kts 292°
2026-04-21 00:16 -23.70909 -47.01206 13928 ft 383 kts 291°
2026-04-21 00:17 -23.69863 -47.03895 14485 ft 387 kts 291°
2026-04-21 00:17 -23.68813 -47.06608 15027 ft 389 kts 291°
2026-04-21 00:17 -23.67759 -47.09333 15134 ft 389 kts 291°
2026-04-21 00:17 -23.66720 -47.12018 15145 ft 390 kts 291°
2026-04-21 00:18 -23.65666 -47.14741 15167 ft 390 kts 291°
2026-04-21 00:18 -23.64608 -47.17472 15162 ft 391 kts 291°
2026-04-21 00:18 -23.63544 -47.20215 15310 ft 394 kts 291°
2026-04-21 00:18 -23.62484 -47.22945 16181 ft 385 kts 291°
2026-04-21 00:19 -23.61455 -47.25592 17242 ft 374 kts 291°
2026-04-21 00:19 -23.60453 -47.28166 18314 ft 363 kts 291°
2026-04-21 00:19 -23.59485 -47.30656 19314 ft 349 kts 291°
2026-04-21 00:19 -23.58551 -47.33055 20277 ft 339 kts 292°
2026-04-21 00:20 -23.57632 -47.35419 20957 ft 339 kts 292°
2026-04-21 00:20 -23.56706 -47.37800 21488 ft 343 kts 292°
2026-04-21 00:20 -23.55773 -47.40199 22066 ft 344 kts 291°
2026-04-21 00:20 -23.54840 -47.42595 22735 ft 343 kts 292°
2026-04-21 00:21 -23.53905 -47.44994 23291 ft 346 kts 292°
2026-04-21 00:21 -23.52961 -47.47414 23774 ft 349 kts 292°
2026-04-21 00:21 -23.52075 -47.49881 24248 ft 349 kts 287°
2026-04-21 00:21 -23.51356 -47.52411 24728 ft 350 kts 285°
2026-04-21 00:22 -23.50679 -47.54970 25076 ft 354 kts 285°
2026-04-21 00:22 -23.49991 -47.57559 25393 ft 358 kts 285°
2026-04-21 00:22 -23.49283 -47.60164 25781 ft 359 kts 285°
2026-04-21 00:22 -23.48557 -47.62779 26149 ft 362 kts 286°
2026-04-21 00:23 -23.47818 -47.65413 26513 ft 364 kts 286°
2026-04-21 00:23 -23.47072 -47.68057 26869 ft 367 kts 286°
2026-04-21 00:23 -23.46320 -47.70721 27217 ft 369 kts 286°
2026-04-21 00:23 -23.45563 -47.73406 27533 ft 372 kts 286°
2026-04-21 00:24 -23.44800 -47.76111 27835 ft 375 kts 286°
2026-04-21 00:24 -23.43861 -47.78775 28158 ft 379 kts 294°
2026-04-21 00:24 -23.42650 -47.81331 28502 ft 381 kts 297°
2026-04-21 00:24 -23.41369 -47.83826 28820 ft 384 kts 298°
2026-04-21 00:25 -23.40056 -47.86367 29116 ft 386 kts 297°
2026-04-21 00:25 -23.38750 -47.88935 29424 ft 389 kts 297°
2026-04-21 00:25 -23.37455 -47.91528 29735 ft 391 kts 296°
2026-04-21 00:25 -23.36165 -47.94146 30048 ft 393 kts 296°
2026-04-21 00:26 -23.34876 -47.96779 30311 ft 396 kts 296°
2026-04-21 00:26 -23.33581 -47.99427 30569 ft 397 kts 296°
2026-04-21 00:26 -23.32281 -48.02086 30836 ft 398 kts 296°
2026-04-21 00:26 -23.30977 -48.04750 31083 ft 400 kts 296°
2026-04-21 00:27 -23.29676 -48.07436 31315 ft 402 kts 292°
2026-04-21 00:27 -23.29068 -48.09326 31428 ft 400 kts 278°
2026-04-21 00:27 -23.29020 -48.13324 31761 ft 395 kts 260°
2026-04-21 00:27 -23.29450 -48.16276 32040 ft 396 kts 258°
2026-04-21 00:28 -23.29761 -48.18231 32194 ft 397 kts 258°
2026-04-21 00:28 -23.30394 -48.22201 32497 ft 399 kts 258°
2026-04-21 00:28 -23.30698 -48.24176 32655 ft 400 kts 259°
2026-04-21 00:28 -23.31146 -48.27166 32912 ft 401 kts 259°
2026-04-21 00:29 -23.31584 -48.30162 33123 ft 403 kts 259°
2026-04-21 00:29 -23.32461 -48.36242 33114 ft 408 kts 259°
2026-04-21 00:30 -23.33484 -48.42241 33112 ft 399 kts 250°
2026-04-21 00:30 -23.35527 -48.47860 33478 ft 400 kts 246°
2026-04-21 00:30 -23.36593 -48.50652 33780 ft 399 kts 246°
2026-04-21 00:31 -23.37655 -48.53447 34019 ft 400 kts 246°
2026-04-21 00:31 -23.38712 -48.56251 34217 ft 402 kts 246°
2026-04-21 00:31 -23.39768 -48.59072 34378 ft 403 kts 246°
2026-04-21 00:31 -23.40822 -48.61903 34581 ft 404 kts 246°
2026-04-21 00:32 -23.41875 -48.64740 34788 ft 404 kts 246°
2026-04-21 00:32 -23.42926 -48.67579 35008 ft 404 kts 247°
2026-04-21 00:32 -23.43961 -48.70375 35215 ft 404 kts 247°
2026-04-21 00:32 -23.45011 -48.73215 35403 ft 405 kts 247°
2026-04-21 00:33 -23.46065 -48.76064 35570 ft 406 kts 247°
2026-04-21 00:33 -23.47120 -48.78923 35736 ft 407 kts 247°
2026-04-21 00:33 -23.48177 -48.81784 35920 ft 407 kts 247°
2026-04-21 00:33 -23.49234 -48.84648 36080 ft 408 kts 247°
2026-04-21 00:34 -23.50298 -48.87534 36095 ft 413 kts 247°
2026-04-21 00:34 -23.52459 -48.93402 36111 ft 422 kts 247°
2026-04-21 00:35 -23.54663 -48.99391 36114 ft 430 kts 247°
2026-04-21 00:35 -23.56902 -49.05489 36106 ft 435 kts 247°
2026-04-21 00:36 -23.59159 -49.11643 36107 ft 438 kts 247°
2026-04-21 00:36 -23.61426 -49.17833 36098 ft 440 kts 247°
2026-04-21 00:37 -23.63686 -49.24037 36095 ft 440 kts 247°
2026-04-21 00:37 -23.65943 -49.30248 36090 ft 440 kts 247°
2026-04-21 00:38 -23.68189 -49.36440 36091 ft 438 kts 247°
2026-04-21 00:38 -23.70410 -49.42566 36090 ft 436 kts 247°
2026-04-21 00:39 -23.72632 -49.48706 36084 ft 434 kts 247°
2026-04-21 00:39 -23.74843 -49.54819 36092 ft 432 kts 247°
2026-04-21 00:40 -23.77045 -49.60906 36085 ft 430 kts 247°
2026-04-21 00:40 -23.79235 -49.66967 36082 ft 428 kts 248°
2026-04-21 00:41 -23.81416 -49.73014 36086 ft 428 kts 248°
2026-04-21 00:41 -23.83594 -49.79055 36090 ft 428 kts 248°
2026-04-21 00:42 -23.85770 -49.85105 36087 ft 428 kts 248°
2026-04-21 00:42 -23.87948 -49.91169 36093 ft 429 kts 248°
2026-04-21 00:43 -23.90128 -49.97250 36100 ft 430 kts 248°
2026-04-21 00:43 -23.92289 -50.03314 36101 ft 431 kts 248°
2026-04-21 00:44 -23.94463 -50.09431 36095 ft 432 kts 248°
2026-04-21 00:44 -23.96642 -50.15565 36096 ft 433 kts 248°
2026-04-21 00:45 -23.99910 -50.24781 36099 ft 434 kts 248°
2026-04-21 00:45 -24.02084 -50.30931 36101 ft 433 kts 248°
2026-04-21 00:46 -24.04250 -50.37085 36097 ft 433 kts 248°
2026-04-21 00:46 -24.06420 -50.43200 36085 ft 428 kts 249°
2026-04-21 00:47 -24.08526 -50.49277 36094 ft 427 kts 248°
2026-04-21 00:47 -24.10673 -50.55370 36100 ft 432 kts 248°
2026-04-21 00:48 -24.12829 -50.61496 36087 ft 429 kts 248°
2026-04-21 00:48 -24.14981 -50.67618 36085 ft 434 kts 249°
2026-04-21 00:49 -24.17124 -50.73774 36092 ft 434 kts 249°
2026-04-21 00:49 -24.19218 -50.79902 36083 ft 431 kts 248°
2026-04-21 00:50 -24.21360 -50.86032 36085 ft 431 kts 248°
2026-04-21 00:50 -24.23567 -50.92221 36072 ft 433 kts 248°
2026-04-21 00:51 -24.25706 -50.98326 36078 ft 432 kts 249°
2026-04-21 00:51 -24.27824 -51.04515 36090 ft 435 kts 249°
2026-04-21 00:52 -24.29947 -51.10706 36082 ft 433 kts 249°
2026-04-21 00:52 -24.32049 -51.16861 36090 ft 429 kts 249°
2026-04-21 00:53 -24.34176 -51.22947 36093 ft 427 kts 249°
2026-04-21 00:53 -24.36288 -51.29047 36090 ft 429 kts 248°
2026-04-21 00:54 -24.38402 -51.35155 36097 ft 429 kts 249°
2026-04-21 00:54 -24.40504 -51.41302 36082 ft 432 kts 249°
2026-04-21 00:55 -24.42629 -51.47473 36093 ft 431 kts 249°
2026-04-21 00:55 -24.44735 -51.53642 36071 ft 432 kts 249°
2026-04-21 00:56 -24.46838 -51.59803 36083 ft 430 kts 249°
2026-04-21 00:56 -24.48919 -51.65901 36076 ft 428 kts 249°
2026-04-21 00:57 -24.51000 -51.72008 36080 ft 426 kts 249°
2026-04-21 00:57 -24.53072 -51.78098 36079 ft 425 kts 249°
2026-04-21 00:58 -24.55135 -51.84170 36086 ft 424 kts 249°
2026-04-21 00:58 -24.57191 -51.90228 36078 ft 423 kts 250°
2026-04-21 00:59 -24.59240 -51.96283 36077 ft 423 kts 250°
2026-04-21 00:59 -24.61286 -52.02338 36082 ft 423 kts 250°
2026-04-21 01:00 -24.63329 -52.08399 36081 ft 423 kts 250°
2026-04-21 01:00 -24.65375 -52.14470 36077 ft 424 kts 250°
2026-04-21 01:01 -24.67421 -52.20557 36079 ft 425 kts 250°
2026-04-21 01:01 -24.69470 -52.26660 36075 ft 426 kts 250°
2026-04-21 01:02 -24.71509 -52.32737 36058 ft 427 kts 250°
2026-04-21 01:02 -24.73565 -52.38879 36065 ft 428 kts 250°
2026-04-21 01:03 -24.75623 -52.45038 35938 ft 430 kts 250°
2026-04-21 01:03 -24.76652 -52.48121 35576 ft 427 kts 250°
2026-04-21 01:03 -24.77667 -52.51165 35154 ft 422 kts 250°
2026-04-21 01:04 -24.78674 -52.54185 34750 ft 419 kts 250°
2026-04-21 01:04 -24.79672 -52.57183 34319 ft 416 kts 250°
2026-04-21 01:04 -24.80667 -52.60175 33843 ft 414 kts 250°
2026-04-21 01:04 -24.81655 -52.63144 33401 ft 412 kts 250°
2026-04-21 01:05 -24.82636 -52.66095 32965 ft 409 kts 250°
2026-04-21 01:05 -24.83607 -52.69022 32492 ft 407 kts 250°
2026-04-21 01:05 -24.84584 -52.71973 31818 ft 410 kts 250°
2026-04-21 01:05 -24.85559 -52.74925 31339 ft 415 kts 250°
2026-04-21 01:06 -24.86565 -52.77969 30938 ft 432 kts 249°
2026-04-21 01:06 -24.87613 -52.81140 30478 ft 448 kts 249°
2026-04-21 01:06 -24.88672 -52.84350 29988 ft 453 kts 249°
2026-04-21 01:06 -24.89742 -52.87598 29466 ft 449 kts 249°
2026-04-21 01:07 -24.90801 -52.90817 28979 ft 445 kts 249°
2026-04-21 01:07 -24.91848 -52.94001 28512 ft 440 kts 250°
2026-04-21 01:07 -24.92888 -52.97163 28040 ft 437 kts 250°
2026-04-21 01:07 -24.93918 -53.00302 27582 ft 434 kts 250°
2026-04-21 01:08 -24.94941 -53.03417 27128 ft 431 kts 250°
2026-04-21 01:08 -24.95957 -53.06514 26679 ft 428 kts 250°
2026-04-21 01:08 -24.96970 -53.09606 26248 ft 434 kts 251°
2026-04-21 01:08 -24.98008 -53.12782 25797 ft 446 kts 251°
2026-04-21 01:09 -24.99064 -53.16013 25324 ft 447 kts 251°
2026-04-21 01:09 -25.00112 -53.19219 24847 ft 441 kts 251°
2026-04-21 01:09 -25.01145 -53.22381 24386 ft 436 kts 251°
2026-04-21 01:09 -25.02166 -53.25507 23920 ft 432 kts 251°
2026-04-21 01:10 -25.03177 -53.28605 23444 ft 427 kts 251°
2026-04-21 01:10 -25.04176 -53.31670 22921 ft 423 kts 251°
2026-04-21 01:10 -25.05164 -53.34706 22443 ft 419 kts 252°
2026-04-21 01:10 -25.06142 -53.37715 21982 ft 416 kts 252°
2026-04-21 01:11 -25.07118 -53.40718 21529 ft 415 kts 252°
2026-04-21 01:11 -25.08088 -53.43707 21092 ft 415 kts 252°
2026-04-21 01:11 -25.09062 -53.46713 20641 ft 416 kts 252°
2026-04-21 01:11 -25.10037 -53.49722 20207 ft 417 kts 252°
2026-04-21 01:12 -25.11014 -53.52741 19755 ft 419 kts 252°
2026-04-21 01:12 -25.11982 -53.55732 19298 ft 420 kts 253°
2026-04-21 01:12 -25.12966 -53.58772 18833 ft 421 kts 253°
2026-04-21 01:12 -25.13951 -53.61816 18361 ft 421 kts 253°
2026-04-21 01:13 -25.14931 -53.64850 17852 ft 416 kts 253°
2026-04-21 01:13 -25.15894 -53.67836 17221 ft 412 kts 253°
2026-04-21 01:13 -25.16845 -53.70799 16685 ft 406 kts 253°
2026-04-21 01:13 -25.17780 -53.73721 16226 ft 400 kts 253°
2026-04-21 01:14 -25.18699 -53.76598 15792 ft 396 kts 253°
2026-04-21 01:14 -25.19618 -53.79478 15362 ft 398 kts 253°
2026-04-21 01:14 -25.20540 -53.82368 14949 ft 400 kts 253°
2026-04-21 01:14 -25.21462 -53.85255 14520 ft 396 kts 253°
2026-04-21 01:15 -25.22371 -53.88116 14082 ft 394 kts 253°
2026-04-21 01:15 -25.23156 -53.91001 13601 ft 392 kts 257°
2026-04-21 01:15 -25.23827 -53.93897 13148 ft 386 kts 258°
2026-04-21 01:15 -25.24454 -53.96746 12713 ft 378 kts 258°
2026-04-21 01:16 -25.25066 -53.99543 12301 ft 371 kts 258°
2026-04-21 01:16 -25.25672 -54.02286 11908 ft 364 kts 258°
2026-04-21 01:16 -25.26275 -54.04980 11510 ft 359 kts 258°
2026-04-21 01:16 -25.26878 -54.07641 11127 ft 355 kts 258°
2026-04-21 01:17 -25.27275 -54.09389 10873 ft 352 kts 258°
2026-04-21 01:17 -25.27867 -54.11992 10495 ft 347 kts 258°
2026-04-21 01:17 -25.28449 -54.14551 10283 ft 338 kts 258°
2026-04-21 01:17 -25.29016 -54.17037 10106 ft 330 kts 258°
2026-04-21 01:18 -25.29573 -54.19480 9928 ft 324 kts 258°
2026-04-21 01:18 -25.30109 -54.21827 9889 ft 307 kts 258°
2026-04-21 01:18 -25.30622 -54.24079 9599 ft 297 kts 258°
2026-04-21 01:18 -25.31120 -54.26263 9285 ft 289 kts 258°
2026-04-21 01:19 -25.31604 -54.28394 8985 ft 282 kts 258°
2026-04-21 01:19 -25.32077 -54.30481 8686 ft 278 kts 258°
2026-04-21 01:19 -25.32545 -54.32546 8376 ft 277 kts 257°
2026-04-21 01:19 -25.33003 -54.34579 8041 ft 276 kts 257°
2026-04-21 01:20 -25.33471 -54.36640 7705 ft 277 kts 257°
2026-04-21 01:20 -25.33938 -54.38698 7373 ft 276 kts 257°
2026-04-21 01:20 -25.34402 -54.40752 7048 ft 276 kts 257°
2026-04-21 01:20 -25.34864 -54.42794 6735 ft 271 kts 257°
2026-04-21 01:21 -25.35317 -54.44794 6449 ft 267 kts 257°
2026-04-21 01:21 -25.35763 -54.46771 6102 ft 264 kts 257°
2026-04-21 01:21 -25.36203 -54.48717 5816 ft 256 kts 257°
2026-04-21 01:21 -25.36626 -54.50585 5521 ft 247 kts 257°
2026-04-21 01:22 -25.37039 -54.52416 5218 ft 244 kts 258°
2026-04-21 01:22 -25.37450 -54.54239 4934 ft 244 kts 258°
2026-04-21 01:22 -25.37863 -54.56070 4664 ft 247 kts 258°
2026-04-21 01:22 -25.38282 -54.57919 4416 ft 249 kts 256°
2026-04-21 01:23 -25.39096 -54.59553 4131 ft 248 kts 223°
2026-04-21 01:23 -25.40550 -54.60497 3944 ft 239 kts 202°
2026-04-21 01:23 -25.42074 -54.61132 3707 ft 230 kts 200°
2026-04-21 01:23 -25.43552 -54.61719 3523 ft 220 kts 200°
2026-04-21 01:24 -25.44989 -54.62291 3213 ft 219 kts 199°
2026-04-21 01:24 -25.46410 -54.62864 3041 ft 219 kts 198°
2026-04-21 01:24 -25.47868 -54.63007 2998 ft 205 kts 160°
2026-04-21 01:24 -25.48964 -54.62174 3021 ft 189 kts 131°
2026-04-21 01:25 -25.49895 -54.61162 2995 ft 186 kts 130°
2026-04-21 01:25 -25.50740 -54.60138 2964 ft 178 kts 127°
2026-04-21 01:25 -25.51528 -54.59128 2774 ft 166 kts 126°
2026-04-21 01:25 -25.52240 -54.58189 2608 ft 156 kts 124°
2026-04-21 01:26 -25.52933 -54.57276 2385 ft 151 kts 126°
2026-04-21 01:26 -25.53616 -54.56396 2188 ft 151 kts 126°
2026-04-21 01:26 -25.54302 -54.55514 2006 ft 151 kts 128°
2026-04-21 01:26 -25.54980 -54.54645 1825 ft 146 kts 128°
2026-04-21 01:27 -25.55640 -54.53797 1654 ft 142 kts 128°
2026-04-21 01:27 -25.56273 -54.52967 1469 ft 144 kts 131°
2026-04-21 01:27 -25.56919 -54.52126 1315 ft 143 kts 131°
2026-04-21 01:27 -25.57579 -54.51285 1162 ft 145 kts 132°
2026-04-21 01:28 -25.58243 -54.50442 968 ft 146 kts 132°
2026-04-21 01:28 -25.58904 -54.49600 813 ft 143 kts 132°
2026-04-21 01:28 -25.59479 -54.48863 800 ft 99 kts 131°
2026-04-21 01:28 -25.59708 -54.48570 795 ft 21 kts 131°
2026-04-21 01:29 -25.59781 -54.48489 794 ft 10 kts 160°
2026-04-21 01:29 -25.59802 -54.48475 794 ft 2 kts 95°
2026-04-21 01:29 -25.59786 -54.48472 794 ft 4 kts 336°
2026-04-21 01:29 -25.59752 -54.48513 794 ft 10 kts 310°
2026-04-21 01:30 -25.59698 -54.48583 796 ft 13 kts 311°
2026-04-21 01:30 -25.59656 -54.48644 797 ft 7 kts 279°
2026-04-21 01:30 -25.59676 -54.48693 797 ft 7 kts 226°
2026-04-21 01:30 -25.59711 -54.48730 797 ft 7 kts 212°
2026-04-21 01:31 -25.59746 -54.48760 797 ft 4 kts 221°
2026-04-21 01:31 -25.59754 -54.48767 797 ft 0 kts 221°